Weather History for KDVN - October, 2012

Change the Weather History Date:

Wednesday, October 24, 2012

  Actual Average Record
Temperature  
Mean Temperature 71 °F 49 °F  
Max Temperature 80 °F 60 °F 82 °F (1963)
Min Temperature 62 °F 38 °F 21 °F (1999)
Degree Days  
Heating Degree Days 0 16  
Month to date heating degree days 314 300  
Since 1 July heating degree days 491 435  
Cooling Degree Days 6 0  
Month to date cooling degree days 8 11  
Year to date cooling degree days 1114 785  
Growing Degree Days 21 (Base 50)    
Moisture  
Dew Point 63 °F    
Average Humidity 78    
Maximum Humidity 93    
Minimum Humidity 62    
Precipitation  
Precipitation 0.23 in 0.10 in 0.50 in (1977)
Month to date precipitation 2.67 2.32  
Year to date precipitation 26.49 31.20  
Snow  
Snow 0.00 in - - ()
Month to date snowfall 0.0  
Since 1 July snowfall 0.0  
Since 1 September snowfall 0.0  
Snow Depth 0.00 in    
Sea Level Pressure  
Sea Level Pressure 29.83 in    
Wind  
Wind Speed 13 mph (South)    
Max Wind Speed 25 mph    
Max Gust Speed 31 mph    
Visibility 8 miles    
Events Rain , Thunderstorm    
T = Trace of Precipitation, MM = Missing Value Source: NWS Daily Summary

Daily Weather History Graph

Daily Weather History Graph

Search for Another Location

Airport or City:

Trip Planner

Search our weather history database for the weather conditions in past years. The results will help you decide how hot, cold, wet, or windy it might be!

Date:

Astronomy

Oct. 24, 2012 Rise Set
Actual Time 7:25 AM CDT 6:06 PM CDT
Civil Twilight 6:56 AM CDT 6:35 PM CDT
Nautical Twilight 6:24 AM CDT 7:07 PM CDT
Astronomical Twilight 5:52 AM CDT 7:39 PM CDT
Moon 3:26 PM CDT (10/24) 2:16 AM CDT (10/24)
Length of Visible Light 11h 38m
Length of Day
10h 41m
Waxing Gibbous, 76% of the Moon is Illuminated
Oct 24
Waxing Gibbous
Oct 29
Full
Nov 6
Last Quarter
Nov 13
New
Nov 20
First Quarter

Hourly Weather History & Observations

Time (CDT) Temp. Heat Index Dew Point Humidity Pressure Visibility Wind Dir Wind Speed Gust Speed Precip Events Conditions
12:52 AM 64.0 °F - 61.0 °F 90% 29.86 in 10.0 mi SSE 8.1 mph - N/A   Scattered Clouds
1:52 AM 63.0 °F - 60.1 °F 90% 29.85 in 9.0 mi SSE 9.2 mph - N/A   Clear
2:52 AM 63.0 °F - 60.1 °F 90% 29.85 in 9.0 mi SSE 5.8 mph - N/A   Clear
3:39 AM 62.6 °F - 60.8 °F 94% 29.86 in 10.0 mi South 5.8 mph - N/A Thunderstorm Mostly Cloudy
3:52 AM 64.0 °F - 61.0 °F 90% 29.86 in 6.0 mi South 5.8 mph - 0.01 in Rain , Thunderstorm Thunderstorms and Rain
4:17 AM 64.4 °F - 60.8 °F 88% 29.87 in 1.8 mi SSW 9.2 mph - 0.16 in Rain , Thunderstorm Heavy Thunderstorms and Rain
4:20 AM 64.4 °F - 62.6 °F 94% 29.87 in 1.2 mi South 8.1 mph - 0.22 in Rain , Thunderstorm Heavy Rain
4:28 AM 64.4 °F - 62.6 °F 94% 29.87 in 3.0 mi South 9.2 mph - 0.22 in Rain , Thunderstorm Light Rain
4:35 AM 64.4 °F - 62.6 °F 94% 29.87 in 7.0 mi South 9.2 mph - 0.22 in Rain Light Rain
4:45 AM 64.4 °F - 62.6 °F 94% 29.87 in 8.0 mi South 10.4 mph - 0.22 in Rain , Thunderstorm Light Rain
4:52 AM 64.0 °F - 62.1 °F 93% 29.87 in 7.0 mi South 9.2 mph - 0.22 in Thunderstorm Overcast
5:00 AM 64.4 °F - 62.6 °F 94% 29.87 in 7.0 mi South 9.2 mph - N/A   Overcast
5:52 AM 64.9 °F - 62.1 °F 90% 29.86 in 10.0 mi South 8.1 mph - N/A   Overcast
6:52 AM 64.0 °F - 60.1 °F 87% 29.86 in 10.0 mi South 11.5 mph - N/A   Mostly Cloudy
7:52 AM 63.0 °F - 59.0 °F 87% 29.88 in 10.0 mi South 10.4 mph - N/A   Partly Cloudy
8:52 AM 64.9 °F - 60.1 °F 84% 29.88 in 10.0 mi South 10.4 mph - N/A   Overcast
11:52 AM 73.9 °F - 64.0 °F 71% 29.85 in 10.0 mi South 11.5 mph - N/A   Clear
12:52 PM 77.0 °F - 64.9 °F 66% 29.83 in 10.0 mi SSW 10.4 mph - N/A   Clear
1:52 PM 79.0 °F - 64.9 °F 62% 29.80 in 10.0 mi South 16.1 mph 27.6 mph 0.01 in   Clear
2:52 PM 80.1 °F 82.1 °F 66.0 °F 62% 29.76 in 10.0 mi South 18.4 mph 27.6 mph N/A   Clear
3:52 PM 80.1 °F 82.1 °F 66.0 °F 62% 29.75 in 10.0 mi South 18.4 mph 26.5 mph N/A   Clear
4:52 PM 78.1 °F - 64.0 °F 62% 29.76 in 10.0 mi South 19.6 mph 27.6 mph N/A   Clear
5:52 PM 75.9 °F - 64.0 °F 67% 29.76 in 10.0 mi South 15.0 mph - N/A   Clear
6:52 PM 73.9 °F - 64.0 °F 71% 29.77 in 10.0 mi South 12.7 mph - N/A   Clear
8:52 PM 72.0 °F - 64.0 °F 76% 29.77 in 10.0 mi South 16.1 mph - N/A   Clear
9:52 PM 72.0 °F - 63.0 °F 73% 29.77 in 10.0 mi South 15.0 mph - N/A   Clear
10:52 PM 71.1 °F - 63.0 °F 75% 29.76 in 10.0 mi South 15.0 mph - N/A   Clear
11:52 PM 71.1 °F - 62.1 °F 73% 29.74 in 10.0 mi South 19.6 mph 26.5 mph N/A   Clear